GW0425 Weather Reports


Display with metric or nautical units.
time (UTC)temp
F
wind
direction
speed
MPH
gust
MPH
rain 1hr
in
rain 24hr
in
rain mn
in
humidity
%
barometer
mb
20260506061548 52 29 11.0 16.0 0.00 0.18 0.02 95 1009.0
20260506044544 52 32 9.0 15.0 0.01 0.18 0.02 96 1008.5
20260506043040 52 16 10.0 15.0 0.02 0.18 0.02 95 1008.5
20260506041552 52 23 5.0 11.0 0.02 0.18 0.02 95 1008.5
20260506040039 53 17 10.0 14.0 0.00 0.17 0.00 95 1008.4
20260506034547 53 22 4.0 9.0 0.00 0.17 0.00 94 1008.2
20260506033038 54 30 3.0 7.0 0.00 0.16 0.00 93 1008.2
20260506031543 54 49 1.0 4.0 0.00 0.16 0.00 92 1008.3
20260506030041 54 44 2.0 5.0 0.00 0.16 0.00 91 1008.3
20260506024540 55 39 0.0 3.0 0.00 0.16 0.00 89 1008.4
20260506023037 54 0 0.0 0.0 0.00 0.16 0.00 88 1008.4
20260506021536 55 0 0.0 1.0 0.00 0.16 0.00 87 1008.4
20260506020047 55 285 1.0 3.0 0.00 0.16 0.00 88 1008.4
20260506014542 55 285 1.0 3.0 0.00 0.16 0.00 88 1008.6
20260506013051 55 297 0.0 3.0 0.00 0.16 0.00 89 1008.7
20260506011543 54 285 1.0 6.0 0.00 0.16 0.00 90 1008.9
20260506010037 55 269 1.0 4.0 0.00 0.16 0.00 91 1009.1
20260506004536 55 259 0.0 2.0 0.00 0.16 0.00 91 1009.2
20260506003042 55 268 1.0 3.0 0.00 0.16 0.00 91 1009.2
20260506001542 55 277 0.0 3.0 0.00 0.16 0.00 91 1009.3
20260506000038 55 274 1.0 3.0 0.00 0.16 0.00 91 1009.5
20260505234538 55 250 0.0 4.0 0.00 0.16 0.00 91 1009.5
20260505233036 55 0 2.0 5.0 0.00 0.16 0.00 91 1009.4
20260505231537 55 276 0.0 2.0 0.00 0.16 0.00 90 1009.5
20260505230054 55 0 1.0 3.0 0.00 0.16 0.00 90 1009.6
20260505224539 56 278 0.0 5.0 0.00 0.17 0.00 89 1009.7
20260505223043 56 261 0.0 4.0 0.00 0.17 0.00 88 1009.7
20260505221545 56 303 1.0 9.0 0.00 0.17 0.00 87 1009.8
20260505220050 56 271 0.0 5.0 0.00 0.17 0.00 87 1010.0
20260505214537 56 281 1.0 4.0 0.00 0.18 0.17 87 1010.1
20260505213041 57 287 3.0 8.0 0.00 0.18 0.17 85 1010.3
20260505211549 57 289 1.0 4.0 0.00 0.18 0.17 86 1010.4
20260505210040 57 0 0.0 3.0 0.00 0.18 0.17 85 1010.6
20260505204539 57 0 0.0 3.0 0.00 0.22 0.17 86 1010.7
20260505203042 56 236 0.0 4.0 0.00 0.22 0.17 85 1010.8
20260505201543 57 253 0.0 4.0 0.00 0.22 0.17 84 1010.8
20260505200042 57 163 1.0 7.0 0.00 0.22 0.17 84 1010.6
20260505194542 57 311 0.0 6.0 0.00 0.22 0.17 83 1010.4
20260505193047 57 269 3.0 8.0 0.00 0.22 0.17 83 1010.3
20260505191541 57 257 3.0 8.0 0.00 0.22 0.17 81 1010.3
20260505190043 58 272 1.0 11.0 0.00 0.22 0.17 81 1010.3
20260505184540 59 308 3.0 13.0 0.00 0.22 0.17 80 1010.3
20260505183040 60 264 5.0 12.0 0.00 0.22 0.17 80 1010.2
20260505181543 59 286 5.0 12.0 0.00 0.22 0.17 81 1010.3
20260505180035 60 262 5.0 10.0 0.00 0.22 0.17 79 1010.1
20260505174536 60 304 5.0 11.0 0.00 0.22 0.17 79 1010.3
20260505173042 60 284 4.0 12.0 0.00 0.22 0.17 80 1010.2
20260505171539 60 287 6.0 12.0 0.00 0.22 0.17 79 1010.3
20260505170038 61 306 7.0 11.0 0.00 0.22 0.17 78 1010.4
20260505164537 61 304 7.0 11.0 0.00 0.22 0.17 76 1010.4
20260505163043 61 290 7.0 12.0 0.00 0.22 0.17 77 1010.3
20260505161545 61 278 6.0 17.0 0.00 0.22 0.17 79 1010.4
20260505153037 61 303 4.0 11.0 0.00 0.22 0.17 78 1010.3
20260505151538 60 292 4.0 13.0 0.00 0.22 0.17 80 1010.4
20260505124548 58 281 3.0 7.0 0.01 0.20 0.14 87 1010.8
20260505123038 59 0 0.0 7.0 0.00 0.19 0.14 87 1010.7
20260505121541 59 0 2.0 10.0 0.03 0.18 0.13 87 1010.7
20260505120041 58 306 3.0 8.0 0.10 0.18 0.13 87 1010.7
20260505114539 57 293 3.0 9.0 0.10 0.18 0.13 90 1010.7
20260505113039 56 297 2.0 6.0 0.10 0.18 0.13 90 1011.0
20260505111537 57 304 3.0 12.0 0.09 0.15 0.10 88 1011.1
20260505101545 58 302 5.0 13.0 0.00 0.07 0.00 82 1010.8
20260505100037 59 309 7.0 15.0 0.00 0.07 0.00 80 1010.8
20260505094536 59 323 5.0 13.0 0.00 0.08 0.00 86 1010.8
20260505093036 59 297 7.0 11.0 0.00 0.08 0.00 84 1010.8
20260505091541 60 308 5.0 11.0 0.00 0.08 0.00 83 1010.7
20260505090045 59 279 6.0 11.0 0.00 0.08 0.00 84 1010.7
20260505084550 60 314 6.0 12.0 0.00 0.15 0.00 85 1010.7
20260505083046 60 314 7.0 11.0 0.00 0.15 0.00 85 1010.8
20260505081552 60 321 7.0 11.0 0.00 0.15 0.00 84 1010.7
20260505080047 60 310 5.0 13.0 0.00 0.15 0.00 81 1010.7
20260505074541 60 300 8.0 13.0 0.00 0.23 0.00 81 1010.6
20260505073039 60 302 6.0 11.0 0.00 0.23 0.00 80 1010.7
20260505071546 59 285 5.0 12.0 0.00 0.23 0.00 82 1010.6
20260505070036 59 324 4.0 7.0 0.00 0.23 0.00 82 1010.6
20260505064537 58 287 3.0 8.0 0.00 0.27 0.00 83 1010.6
20260505063041 58 290 4.0 8.0 0.00 0.27 0.00 83 1010.7